Regional Weather Roundup
Issued by NWS

Home | Current Version | Previous Version | Graphics & Text | Print | Product List | Glossary On
Versions: 1 2 3 4 5 6 7 8 9 10 11 12 13 14 15 16 17 18 19 20 21 22 23 24 25 26 27 28 29 30 31 32 33 34 35 36 37 38 39 40 41 42 43 44 45 46 47 48 49 50
000
ASUS43 KFSD 150510
RWRSD

WEATHER ROUNDUP FOR SOUTH DAKOTA
NATIONAL WEATHER SERVICE SIOUX FALLS SD
1100 PM CST THU DEC 14 2017

NOTE: "FAIR" INDICATES FEW OR NO CLOUDS BELOW 12,000 FEET WITH NO
SIGNIFICANT WEATHER AND/OR OBSTRUCTIONS TO VISIBILITY.


SDZ001>005-009-010-012>017-150600-
NORTHWEST AND NORTH CENTRAL SOUTH DAKOTA

CITY           SKY/WX    TMP DP  RH WIND       PRES   REMARKS
BUFFALO          N/A     22  17  81 W13       29.97F WCI  10
FAITH            N/A     23  20  88 SW9       30.05F WCI  13
MOBRIDGE       CLOUDY    35  25  66 W8        30.02F WCI  29
$$

SDZ012>016-024>037-041>051-057-063-072>074-150600-
SOUTHWEST AND SOUTH CENTRAL SOUTH DAKOTA

CITY           SKY/WX    TMP DP  RH WIND       PRES   REMARKS
RAPID CTY ARPT CLOUDY    19  12  74 S3        30.08F
PIERRE         CLOUDY    33  28  81 W10       30.09F WCI  25
CUSTER         CLOUDY    20  12  71 SW8       30.03F WCI  10
ELLSWORTH AFB  CLOUDY    22  14  70 W6        30.06F WCI  15
PHILIP         CLEAR     26  24  92 W6        30.11F WCI  19
PINE RIDGE     CLOUDY    20  17  88 SW3       30.14F
SPEARFISH      FAIR      30  18  59 W13       30.06F WCI  20
WINNER         CLOUDY    34  29  82 W10       30.12F WCI  26
$$

SDZ004>011-016>023-039-040-150600-
NORTHEAST SOUTH DAKOTA

CITY           SKY/WX    TMP DP  RH WIND       PRES   REMARKS
ABERDEEN       CLOUDY    32  27  81 W10       30.02F WCI  24
WATERTOWN      CLOUDY    27  25  92 W13       29.99F WCI  16
BROOKINGS      FLURRIES  27  24  89 W10       30.03F WCI  17
SISSETON         N/A     31  28  89 W12       29.97F WCI  22
$$

SDZ017-020-022-023-036>040-048>070-150600-
SOUTHEAST SOUTH DAKOTA

CITY           SKY/WX    TMP DP  RH WIND       PRES   REMARKS
SIOUX FALLS    CLOUDY    28  24  85 W8        30.07F WCI  20
HURON          CLOUDY    32  26  78 W10       30.06F WCI  24
CHAMBERLAIN    CLOUDY    32  29  89 W6        30.11F WCI  27
MITCHELL       CLOUDY    31  26  82 W9        30.10F WCI  23
YANKTON        CLOUDY    29  26  89 W5        30.13F WCI  24
$$

ABBREVIATIONS USED IN REMARKS
   TC - TEMPERATURE IN CELSIUS
  WCI - WIND CHILL INDEX
   HX - HEAT INDEX
  VSB - VISIBILITY





USA.gov is the U.S. government's official web portal to all federal, state and local government web resources and services.